Theta_e
292 293 293 293 294 294 293 294 294 294 294 293 294 292 291 291 290 289 288 288 288 288 288 287 287 287 286 285 285 285 284 284 285 280 281 280 279 279 279 279 280 280 281
292 292 292 292 292 292 293 293 293 293 293 293 293 292 290 289 289 289 287 287 287 287 287 286 286 285 285 284 284 284 283 283 282 282 279 279 279 280 280 280 280 280 281
290 290 292 292 291 290 290 291 291 291 292 292 291 290 289 289 287 288 287 286 286 286 286 286 285 285 283 283 283 282 282 281 280 279 278 279 279 280 280 280 280 280 282
288 289 289 289 290 292 291 291 291 291 289 290 290 290 289 288 287 286 286 285 286 285 285 285 285 285 284 283 282 281 280 279 278 277 276 276 276 278 278 278 279 278 279
288 288 288 288 287 288 291 290 290 289 289 289 288 288 288 288 287 286 285 284 284 284 284 284 284 284 285 285 283 281 279 277 276 276 276 276 277 277 278 278 277 277 278
286 288 287 287 286 285 287 289 290 289 289 288 287 287 286 285 286 286 286 284 283 283 282 282 282 283 283 284 283 283 282 278 275 275 276 277 277 278 277 277 277 278 279
284 285 286 285 284 284 285 287 289 288 288 287 286 285 285 285 285 285 285 284 283 283 282 281 280 281 281 281 280 280 279 278 279 278 277 278 278 278 277 277 277 278 278
283 283 283 282 281 283 284 284 286 286 285 286 285 285 284 285 285 285 285 284 283 283 282 281 280 280 280 280 280 279 278 277 277 277 278 278 278 277 277 277 277 276 274
281 281 280 279 279 283 283 283 283 284 284 284 284 284 284 284 284 285 286 285 282 282 281 280 280 279 280 279 279 278 277 276 277 278 278 278 277 278 278 277 276 273 273
280 279 278 277 278 281 280 281 281 282 283 283 283 283 283 283 283 284 286 286 282 281 280 279 279 279 279 280 279 278 278 278 278 279 277 278 279 278 276 275 273 272 272
278 277 276 275 276 277 277 279 280 280 281 281 282 282 282 282 282 283 285 286 282 281 279 278 277 279 279 280 278 277 278 277 277 276 277 277 276 275 274 272 272 272 271
276 275 274 273 273 274 274 276 279 280 280 280 280 280 280 280 281 281 284 286 282 281 279 278 277 279 279 281 279 276 277 276 276 276 275 274 273 272 272 271 271 271 271
273 272 272 271 271 271 272 274 276 279 278 279 279 279 280 278 279 281 282 285 283 279 279 278 277 279 280 281 280 277 277 277 275 275 273 272 271 271 270 270 270 270 270
270 270 269 269 269 269 270 272 274 278 279 279 279 279 279 277 277 278 280 283 283 280 279 278 278 280 280 280 281 279 277 277 276 274 272 271 270 269 269 269 269 269 268
267 267 267 267 267 268 268 270 273 276 278 279 279 279 279 278 277 277 279 281 283 280 277 277 278 280 279 279 279 275 275 275 274 273 271 269 269 269 269 268 268 268 267
264 264 264 265 265 265 266 268 269 272 276 280 280 281 279 279 280 279 279 281 282 279 277 277 278 279 276 277 275 273 273 274 272 271 269 269 268 268 268 267 267 267 267
263 263 263 263 264 264 265 267 269 270 274 279 280 281 281 282 280 280 280 282 283 280 277 278 278 278 276 275 273 272 270 271 270 269 268 268 267 267 266 266 266 266 266
262 262 262 262 263 263 264 266 268 270 272 275 276 278 281 282 282 280 280 282 283 280 278 278 277 276 273 272 272 271 270 269 268 268 267 267 267 266 266 266 265 265 265
262 262 262 262 263 263 264 265 267 268 270 274 275 276 278 282 282 281 281 282 283 280 277 276 274 273 272 272 271 270 269 267 267 267 266 266 266 266 266 266 265 265 264
262 262 263 263 264 264 264 266 267 268 270 274 275 275 277 279 281 281 281 280 282 280 274 273 272 272 271 270 269 268 267 266 266 266 266 266 265 266 266 266 265 264 264
263 263 264 264 264 264 265 265 267 269 272 273 274 275 276 278 280 279 279 280 278 273 273 271 271 269 268 268 268 267 267 266 266 266 266 266 266 266 266 265 265 265 264
264 265 265 266 266 265 266 267 268 270 273 273 273 274 276 279 279 278 276 273 271 270 271 272 269 268 268 268 269 268 267 266 266 266 266 266 266 266 266 265 265 264 263
264 265 266 267 269 270 268 269 272 272 272 273 273 274 275 271 270 268 268 268 269 270 270 270 269 268 268 269 268 268 267 267 266 266 266 266 266 266 265 265 265 264 264
263 264 265 266 268 269 270 270 271 272 270 269 268 267 266 266 266 265 265 266 267 268 269 269 268 268 267 266 266 266 266 266 265 266 265 266 266 266 266 266 265 265 264
262 263 264 265 265 266 266 266 266 265 265 265 264 264 263 263 263 264 264 265 266 267 267 267 267 266 266 266 266 265 265 265 265 265 265 266 266 266 266 266 266 265 264
260 261 262 262 263 263 264 264 264 263 263 263 263 263 262 262 262 263 264 265 265 266 266 265 265 265 265 264 264 264 264 265 265 265 265 266 266 266 266 266 266 265 265
Wind_Speed
35 35 28 24 28 30 34 33 34 36 35 38 39 44 49 52 52 51 49 50 49 47 44 41 39 35 33 30 27 25 23 19 7 6 12 14 11 9 8 9 9 11 11
36 36 35 34 24 26 32 34 33 36 37 38 40 42 46 49 53 54 50 51 53 51 49 45 42 38 35 33 32 30 28 24 15 10 12 10 10 8 8 10 10 12 14
31 33 36 38 33 27 27 30 31 34 37 40 41 43 44 48 49 53 54 49 50 51 51 51 48 45 41 39 36 34 30 28 24 15 10 11 10 9 9 9 11 13 15
31 26 23 28 33 36 33 29 31 33 35 38 43 45 46 46 47 48 46 48 52 51 50 53 52 52 49 46 42 38 33 28 23 18 12 10 11 9 9 7 9 9 15
29 28 27 28 32 35 35 33 28 31 35 35 39 42 44 47 50 46 45 45 45 42 47 50 51 54 52 48 46 42 37 32 23 18 12 10 10 10 11 6 8 10 16
22 24 28 28 31 31 35 35 32 29 30 35 39 39 41 43 41 49 51 45 42 40 40 43 45 51 51 47 45 41 41 42 33 23 19 16 18 14 11 10 9 6 5
25 25 25 28 30 34 36 37 35 31 28 30 35 36 40 41 38 43 47 44 43 44 42 41 39 45 47 41 34 34 35 36 35 36 26 20 16 17 13 12 10 9 9
25 27 27 31 34 35 36 35 37 33 28 29 29 33 35 36 34 38 41 40 39 42 44 46 47 45 50 47 40 35 35 34 32 32 28 20 16 14 14 10 9 10 14
24 25 28 30 32 27 27 32 37 38 31 26 26 27 31 34 32 36 38 40 37 38 39 40 42 43 48 40 41 34 30 32 27 25 22 18 16 14 12 13 11 6 2
24 27 30 32 32 30 31 30 29 32 33 27 27 28 30 33 29 31 39 37 32 34 38 40 44 44 43 43 43 39 33 33 33 28 22 19 18 20 19 13 10 7 4
28 30 31 29 29 31 32 33 34 32 30 29 28 28 29 32 31 30 37 41 35 30 28 29 34 38 42 42 36 39 36 33 31 32 25 26 23 20 15 12 9 8 7
32 31 32 33 32 32 32 35 32 29 27 26 22 24 26 32 32 30 35 44 32 32 31 30 32 38 38 42 38 32 27 27 32 28 27 24 18 16 14 11 9 6 8
28 31 36 34 35 34 31 34 31 28 24 23 20 22 23 23 27 29 31 39 36 30 27 27 28 38 37 38 35 29 29 30 32 27 21 16 15 15 12 10 7 6 7
33 37 36 34 36 35 32 31 30 29 25 23 21 22 21 21 24 26 29 32 34 32 26 25 27 34 34 33 37 31 33 34 33 26 18 15 13 11 11 8 5 2 5
36 37 35 34 34 33 32 31 30 32 30 27 27 25 22 22 27 26 30 31 33 32 29 28 28 31 28 26 26 27 33 33 28 21 18 18 14 12 8 5 2 2 2
35 33 31 31 31 30 31 34 35 39 40 40 37 35 27 32 25 25 31 34 30 37 33 31 28 33 31 33 30 26 29 29 24 23 20 18 14 11 7 4 2 3 5
34 34 32 31 29 28 27 27 22 31 31 33 35 36 34 29 25 25 31 34 35 41 30 30 31 31 29 28 29 30 24 28 28 25 22 21 17 12 8 4 2 4 7
35 35 34 32 30 29 28 27 26 23 17 20 24 29 31 31 28 25 26 31 32 41 29 28 29 31 30 31 29 29 28 28 27 24 22 20 17 12 8 5 3 6 8
33 32 32 32 31 30 29 29 27 26 26 24 19 20 23 26 27 25 26 30 25 31 25 23 28 31 30 29 29 25 28 26 24 26 23 20 16 12 8 4 4 8 10
32 33 33 31 29 28 27 25 24 24 24 21 17 16 16 18 20 23 24 26 23 26 25 24 25 26 27 29 29 30 28 29 27 22 18 15 12 8 5 3 5 6 9
29 30 31 30 28 27 25 24 23 21 20 15 16 18 19 18 18 18 19 20 17 25 27 27 28 27 27 31 33 32 31 28 25 20 17 14 11 8 6 5 6 9 13
27 26 26 26 26 23 22 22 22 21 16 14 14 17 19 19 14 16 13 19 23 26 34 34 29 29 31 34 34 31 29 26 23 19 16 12 9 8 6 5 8 10 13
24 24 24 23 19 18 18 19 15 11 11 12 12 12 6 12 22 22 24 26 28 30 30 28 25 26 28 28 27 27 25 22 19 16 14 12 9 8 7 8 11 13 15
22 22 20 19 17 14 11 8 5 3 4 10 12 14 16 16 24 22 24 25 27 26 25 27 29 28 26 24 22 20 17 16 15 13 11 10 8 6 8 11 14 17 18
21 21 21 20 18 17 16 16 16 15 15 15 15 17 18 20 24 26 27 30 32 33 32 29 26 23 21 19 17 16 15 14 13 12 10 8 7 9 13 16 18 20 19
22 22 21 21 21 19 17 16 17 17 16 16 17 18 19 21 24 28 31 33 33 31 27 24 21 19 16 14 13 13 14 14 12 9 8 8 10 13 15 18 21 22 22
Wind_Direction
9 9 5 326 295 278 265 256 249 248 239 233 230 228 224 220 219 218 215 215 214 214 215 212 210 206 205 204 203 202 203 203 177 176 199 217 239 246 289 327 343 344 350
1 5 5 4 341 296 280 271 260 251 247 241 235 229 227 224 220 217 214 214 212 209 211 210 211 206 206 205 203 202 201 202 198 185 210 213 229 260 301 322 332 336 338
358 360 2 3 359 339 312 294 281 267 254 246 239 233 227 226 221 219 216 214 214 212 210 209 208 206 204 204 204 203 201 199 200 191 204 233 253 281 299 307 321 333 328
352 349 348 351 355 357 350 324 304 287 263 252 245 239 231 228 225 220 215 213 215 214 212 212 209 208 206 205 204 205 203 196 194 195 197 221 244 251 263 287 307 307 301
343 344 342 342 345 349 350 349 327 293 276 265 252 243 235 227 223 220 216 214 212 209 210 211 212 214 213 211 205 203 201 194 185 186 194 199 213 207 207 207 250 276 284
336 335 335 338 339 341 341 342 339 319 287 270 252 245 235 230 223 219 217 212 212 208 207 209 210 213 212 210 211 212 209 197 187 182 196 205 207 208 206 217 229 246 266
334 335 334 336 336 335 337 337 335 326 306 277 257 244 239 238 230 220 214 212 208 207 208 205 203 208 210 204 199 207 209 210 217 205 193 201 193 202 200 211 220 239 250
325 330 332 333 332 327 330 328 325 321 301 278 260 252 247 244 236 225 214 212 213 209 208 206 204 201 203 201 192 193 201 203 209 208 208 207 204 201 212 216 224 261 284
313 318 322 324 322 317 314 314 316 313 301 278 267 258 250 250 241 226 215 212 212 211 206 207 204 202 198 188 187 185 192 201 204 207 209 217 209 208 221 220 240 260 288
300 307 312 313 313 307 309 300 298 297 291 290 276 267 257 253 244 234 218 211 218 211 197 202 203 204 193 187 189 186 187 193 190 194 203 208 211 213 216 228 225 215 204
297 301 304 303 301 300 302 303 298 298 298 285 278 273 269 257 248 233 224 215 208 205 204 201 199 199 192 190 191 192 195 191 190 196 192 204 214 216 218 213 210 208 194
294 298 299 299 298 297 296 293 290 282 280 274 272 267 258 248 242 234 226 222 211 207 203 199 198 195 195 190 191 198 188 185 182 187 192 202 208 211 205 203 201 207 228
293 294 296 295 293 292 289 288 288 278 265 266 256 252 251 242 240 235 232 225 208 203 203 200 195 194 192 191 188 186 182 188 185 181 190 199 205 199 198 195 206 241 270
297 294 293 292 292 289 286 282 278 274 265 258 253 249 249 240 227 229 229 228 207 197 192 193 193 191 191 186 185 185 187 193 187 182 189 192 193 201 208 198 198 252 300
292 291 291 291 289 287 281 278 274 271 260 258 256 250 241 237 231 219 216 217 197 186 168 166 178 180 182 183 178 165 176 180 181 185 178 187 189 204 211 209 219 327 285
291 290 289 289 288 286 285 285 277 272 270 257 256 253 247 248 253 225 220 213 199 178 169 170 182 180 172 168 164 162 175 183 182 182 185 186 187 194 193 215 291 303 283
286 287 287 284 283 281 280 279 285 287 279 260 256 257 250 248 241 235 224 214 198 183 184 180 179 179 174 172 171 167 173 180 183 182 185 184 186 184 188 199 273 279 298
286 284 282 280 277 276 273 271 271 272 276 263 256 262 259 243 231 224 220 218 190 192 192 186 183 176 168 165 171 172 169 174 179 180 180 183 181 181 179 196 262 299 309
288 283 279 276 273 270 270 272 271 273 274 273 263 264 266 241 235 209 212 220 200 191 186 180 172 167 169 171 170 170 169 172 178 181 182 181 180 177 181 204 277 308 305
290 285 281 277 274 270 266 264 267 265 267 257 253 256 255 242 228 196 200 217 219 189 168 166 165 167 169 165 163 166 167 174 181 183 178 179 177 180 190 228 282 292 301
294 289 283 277 270 267 264 262 262 264 265 248 251 253 249 235 214 189 193 206 194 152 157 150 160 162 160 164 172 172 176 176 179 178 176 180 184 192 203 239 284 306 308
302 296 293 285 277 264 259 260 261 261 254 249 254 252 255 244 193 173 164 141 137 139 154 168 167 170 178 177 170 169 175 176 177 179 181 186 197 212 225 270 292 300 299
315 313 312 307 300 288 255 260 256 245 247 250 254 253 237 111 112 117 126 138 146 152 161 169 166 163 162 160 167 174 175 178 180 183 187 195 207 223 245 281 296 295 293
335 334 335 341 350 1 4 1 340 292 106 89 92 92 99 102 116 125 135 138 140 141 144 145 148 147 149 156 162 163 166 172 179 187 198 208 226 245 265 278 289 293 281
355 355 357 359 6 12 22 31 41 49 58 66 73 82 95 104 110 120 128 130 130 128 127 131 138 144 151 158 163 169 176 186 194 201 212 229 246 260 271 278 286 288 286
7 10 12 13 14 18 26 32 39 46 53 62 74 84 93 98 105 115 121 124 122 122 126 133 140 144 149 159 168 180 190 196 200 208 228 241 255 269 282 284 286 290 289